Year,Month,Day,Hour,Minute,Value (Times are PST for temperature in C)
2014,08,19,00,00,20.00
2014,08,19,00,01,20.00
2014,08,19,00,02,20.00
2014,08,19,00,03,20.10
2014,08,19,00,04,20.00
2014,08,19,00,05,20.00
2014,08,19,00,06,20.00
2014,08,19,00,07,19.90
2014,08,19,00,08,19.90
2014,08,19,00,09,19.90
2014,08,19,00,10,19.80
2014,08,19,00,11,19.80
2014,08,19,00,12,19.70
2014,08,19,00,13,19.70
2014,08,19,00,14,19.70
2014,08,19,00,15,19.70
2014,08,19,00,16,19.70
2014,08,19,00,17,19.80
2014,08,19,00,18,19.90
2014,08,19,00,19,19.90
2014,08,19,00,20,19.90
2014,08,19,00,21,19.90
2014,08,19,00,22,19.90
2014,08,19,00,23,19.90
2014,08,19,00,24,19.90
2014,08,19,00,25,19.90
2014,08,19,00,26,19.90
2014,08,19,00,27,20.00
2014,08,19,00,28,20.00
2014,08,19,00,29,20.00
2014,08,19,00,30,20.00
2014,08,19,00,31,20.10
2014,08,19,00,32,20.10
2014,08,19,00,33,20.00
2014,08,19,00,34,20.00
2014,08,19,00,35,19.90
2014,08,19,00,36,19.90
2014,08,19,00,37,19.90
2014,08,19,00,38,19.90
2014,08,19,00,39,19.80
2014,08,19,00,40,19.80
2014,08,19,00,41,19.80
2014,08,19,00,42,19.80
2014,08,19,00,43,19.80
2014,08,19,00,44,19.80
2014,08,19,00,45,19.90
2014,08,19,00,46,19.90
2014,08,19,00,47,19.90
2014,08,19,00,48,19.80
2014,08,19,00,49,19.80
2014,08,19,00,50,19.80
2014,08,19,00,51,19.90
2014,08,19,00,52,19.90
2014,08,19,00,53,19.90
2014,08,19,00,54,19.90
2014,08,19,00,55,20.00
2014,08,19,00,56,20.00
2014,08,19,00,57,20.10
2014,08,19,00,58,20.20
2014,08,19,00,59,20.20
2014,08,19,01,00,20.20
2014,08,19,01,01,20.30
2014,08,19,01,02,20.30
2014,08,19,01,03,20.30
2014,08,19,01,04,20.40
2014,08,19,01,05,20.60
2014,08,19,01,06,20.80
2014,08,19,01,07,21.00
2014,08,19,01,08,21.20
2014,08,19,01,09,21.40
2014,08,19,01,10,21.50
2014,08,19,01,11,21.70
2014,08,19,01,12,21.80
2014,08,19,01,13,21.80
2014,08,19,01,14,21.90
2014,08,19,01,15,22.00
2014,08,19,01,16,22.00
2014,08,19,01,17,22.10
2014,08,19,01,18,22.10
2014,08,19,01,19,22.10
2014,08,19,01,20,22.10
2014,08,19,01,21,22.10
2014,08,19,01,22,22.10
2014,08,19,01,23,22.20
2014,08,19,01,24,22.30
2014,08,19,01,25,22.30
2014,08,19,01,26,22.40
2014,08,19,01,27,22.40
2014,08,19,01,28,22.40
2014,08,19,01,29,22.40
2014,08,19,01,30,22.50
2014,08,19,01,31,22.50
2014,08,19,01,32,22.50
2014,08,19,01,33,22.50
2014,08,19,01,34,22.50
2014,08,19,01,35,22.50
2014,08,19,01,36,22.60
2014,08,19,01,37,22.70
2014,08,19,01,38,22.70
2014,08,19,01,39,22.80
2014,08,19,01,40,22.80
2014,08,19,01,41,22.80
2014,08,19,01,42,22.80
2014,08,19,01,43,22.80
2014,08,19,01,44,22.80
2014,08,19,01,45,22.70
2014,08,19,01,46,22.70
2014,08,19,01,47,22.60
2014,08,19,01,48,22.60
2014,08,19,01,49,22.50
2014,08,19,01,50,22.40
2014,08,19,01,51,22.30
2014,08,19,01,52,22.20
2014,08,19,01,53,22.20
2014,08,19,01,54,22.30
2014,08,19,01,55,22.30
2014,08,19,01,56,22.30
2014,08,19,01,57,22.30
2014,08,19,01,58,22.30
2014,08,19,01,59,22.20
2014,08,19,02,00,22.20
2014,08,19,02,01,22.10
2014,08,19,02,02,22.00
2014,08,19,02,03,21.90
2014,08,19,02,04,21.80
2014,08,19,02,05,21.70
2014,08,19,02,06,21.70
2014,08,19,02,07,21.60
2014,08,19,02,08,21.60
2014,08,19,02,09,21.50
2014,08,19,02,10,21.50
2014,08,19,02,11,21.40
2014,08,19,02,12,21.40
2014,08,19,02,13,21.40
2014,08,19,02,14,21.30
2014,08,19,02,15,21.30
2014,08,19,02,16,21.40
2014,08,19,02,17,21.40
2014,08,19,02,18,21.40
2014,08,19,02,19,21.50
2014,08,19,02,20,21.60
2014,08,19,02,21,21.70
2014,08,19,02,22,21.70
2014,08,19,02,23,21.80
2014,08,19,02,24,21.80
2014,08,19,02,25,21.80
2014,08,19,02,26,21.80
2014,08,19,02,27,21.90
2014,08,19,02,28,21.90
2014,08,19,02,29,21.90
2014,08,19,02,30,22.00
2014,08,19,02,31,22.00
2014,08,19,02,32,22.10
2014,08,19,02,33,22.10
2014,08,19,02,34,22.10
2014,08,19,02,35,22.10
2014,08,19,02,36,22.20
2014,08,19,02,37,22.20
2014,08,19,02,38,22.20
2014,08,19,02,39,22.20
2014,08,19,02,40,22.20
2014,08,19,02,41,22.20
2014,08,19,02,42,22.20
2014,08,19,02,43,22.20
2014,08,19,02,44,22.20
2014,08,19,02,45,22.20
2014,08,19,02,46,22.20
2014,08,19,02,47,22.20
2014,08,19,02,48,22.20
2014,08,19,02,49,22.20
2014,08,19,02,50,22.20
2014,08,19,02,51,22.20
2014,08,19,02,52,22.20
2014,08,19,02,53,22.20
2014,08,19,02,54,22.20
2014,08,19,02,55,22.20
2014,08,19,02,56,22.20
2014,08,19,02,57,22.20
2014,08,19,02,58,22.20
2014,08,19,02,59,22.20
2014,08,19,03,00,22.20
2014,08,19,03,01,22.20
2014,08,19,03,02,22.20
2014,08,19,03,03,22.10
2014,08,19,03,04,22.10
2014,08,19,03,05,22.00
2014,08,19,03,06,21.90
2014,08,19,03,07,21.90
2014,08,19,03,08,21.80
2014,08,19,03,09,21.80
2014,08,19,03,10,21.70
2014,08,19,03,11,21.70
2014,08,19,03,12,21.60
2014,08,19,03,13,21.60
2014,08,19,03,14,21.50
2014,08,19,03,15,21.40
2014,08,19,03,16,21.40
2014,08,19,03,17,21.40
2014,08,19,03,18,21.40
2014,08,19,03,19,21.40
2014,08,19,03,20,21.40
2014,08,19,03,21,21.40
2014,08,19,03,22,21.50
2014,08,19,03,23,21.60
2014,08,19,03,24,21.70
2014,08,19,03,25,21.70
2014,08,19,03,26,21.80
2014,08,19,03,27,21.80
2014,08,19,03,28,21.80
2014,08,19,03,29,21.80
2014,08,19,03,30,21.90
2014,08,19,03,31,21.90
2014,08,19,03,32,21.90
2014,08,19,03,33,21.90
2014,08,19,03,34,21.90
2014,08,19,03,35,21.80
2014,08,19,03,36,21.80
2014,08,19,03,37,21.80
2014,08,19,03,38,21.80
2014,08,19,03,39,21.80
2014,08,19,03,40,21.80
2014,08,19,03,41,21.80
2014,08,19,03,42,21.70
2014,08,19,03,43,21.70
2014,08,19,03,44,21.70
2014,08,19,03,45,21.70
2014,08,19,03,46,21.70
2014,08,19,03,47,21.70
2014,08,19,03,48,21.70
2014,08,19,03,49,21.70
2014,08,19,03,50,21.70
2014,08,19,03,51,21.70
2014,08,19,03,52,21.70
2014,08,19,03,53,21.70
2014,08,19,03,54,21.70
2014,08,19,03,55,21.70
2014,08,19,03,56,21.70
2014,08,19,03,57,21.70
2014,08,19,03,58,21.70
2014,08,19,03,59,21.70
2014,08,19,04,00,21.70
2014,08,19,04,01,21.80
2014,08,19,04,02,21.80
2014,08,19,04,03,21.80
2014,08,19,04,04,21.80
2014,08,19,04,05,21.80
2014,08,19,04,06,21.80
2014,08,19,04,07,21.70
2014,08,19,04,08,21.70
2014,08,19,04,09,21.70
2014,08,19,04,10,21.70
2014,08,19,04,11,21.70
2014,08,19,04,12,21.70
2014,08,19,04,13,21.70
2014,08,19,04,14,21.60
2014,08,19,04,15,21.60
2014,08,19,04,16,21.60
2014,08,19,04,17,21.60
2014,08,19,04,18,21.60
2014,08,19,04,19,21.60
2014,08,19,04,20,21.50
2014,08,19,04,21,21.50
2014,08,19,04,22,21.40
2014,08,19,04,23,21.40
2014,08,19,04,24,21.30
2014,08,19,04,25,21.30
2014,08,19,04,26,21.30
2014,08,19,04,27,21.30
2014,08,19,04,28,21.20
2014,08,19,04,29,21.20
2014,08,19,04,30,21.10
2014,08,19,04,31,21.10
2014,08,19,04,32,21.10
2014,08,19,04,33,21.00
2014,08,19,04,34,21.00
2014,08,19,04,35,20.90
2014,08,19,04,36,20.90
2014,08,19,04,37,20.90
2014,08,19,04,38,20.90
2014,08,19,04,39,20.80
2014,08,19,04,40,20.80
2014,08,19,04,41,20.80
2014,08,19,04,42,20.80
2014,08,19,04,43,20.80
2014,08,19,04,44,20.80
2014,08,19,04,45,20.80
2014,08,19,04,46,20.80
2014,08,19,04,47,20.80
2014,08,19,04,48,20.80
2014,08,19,04,49,20.70
2014,08,19,04,50,20.70
2014,08,19,04,51,20.70
2014,08,19,04,52,20.70
2014,08,19,04,53,20.70
2014,08,19,04,54,20.70
2014,08,19,04,55,20.70
2014,08,19,04,56,20.70
2014,08,19,04,57,20.70
2014,08,19,04,58,20.60
2014,08,19,04,59,20.60
2014,08,19,05,00,20.60
2014,08,19,05,01,20.60
2014,08,19,05,02,20.70
2014,08,19,05,03,20.70
2014,08,19,05,04,20.70
2014,08,19,05,05,20.70
2014,08,19,05,06,20.70
2014,08,19,05,07,20.70
2014,08,19,05,08,20.70
2014,08,19,05,09,20.70
2014,08,19,05,10,20.70
2014,08,19,05,11,20.70
2014,08,19,05,12,20.70
2014,08,19,05,13,20.70
2014,08,19,05,14,20.70
2014,08,19,05,15,20.70
2014,08,19,05,16,20.60
2014,08,19,05,17,20.60
2014,08,19,05,18,20.60
2014,08,19,05,19,20.70
2014,08,19,05,20,20.70
2014,08,19,05,21,20.70
2014,08,19,05,22,20.70
2014,08,19,05,23,20.80
2014,08,19,05,24,20.80
2014,08,19,05,25,20.80
2014,08,19,05,26,20.80
2014,08,19,05,27,20.80
2014,08,19,05,28,20.80
2014,08,19,05,29,20.80
2014,08,19,05,30,20.70
2014,08,19,05,31,20.70
2014,08,19,05,32,20.70
2014,08,19,05,33,20.60
2014,08,19,05,34,20.60
2014,08,19,05,35,20.60
2014,08,19,05,36,20.50
2014,08,19,05,37,20.40
2014,08,19,05,38,20.40
2014,08,19,05,39,20.30
2014,08,19,05,40,20.20
2014,08,19,05,41,20.10
2014,08,19,05,42,20.00
2014,08,19,05,43,20.00
2014,08,19,05,44,19.90
2014,08,19,05,45,19.80
2014,08,19,05,46,19.70
2014,08,19,05,47,19.50
2014,08,19,05,48,19.40
2014,08,19,05,49,19.30
2014,08,19,05,50,19.20
2014,08,19,05,51,19.00
2014,08,19,05,52,18.90
2014,08,19,05,53,18.80
2014,08,19,05,54,18.70
2014,08,19,05,55,18.60
2014,08,19,05,56,18.50
2014,08,19,05,57,18.40
2014,08,19,05,58,18.40
2014,08,19,05,59,18.30
2014,08,19,06,00,18.30
2014,08,19,06,01,18.30
2014,08,19,06,02,18.20
2014,08,19,06,03,18.20
2014,08,19,06,04,18.20
2014,08,19,06,05,18.10
2014,08,19,06,06,18.10
2014,08,19,06,07,18.10
2014,08,19,06,08,18.10
2014,08,19,06,09,18.10
2014,08,19,06,10,18.10
2014,08,19,06,11,18.10
2014,08,19,06,12,18.10
2014,08,19,06,13,18.10
2014,08,19,06,14,18.10
2014,08,19,06,15,18.10
2014,08,19,06,16,18.10
2014,08,19,06,17,18.00
2014,08,19,06,18,18.00
2014,08,19,06,19,18.00
2014,08,19,06,20,17.90
2014,08,19,06,21,17.90
2014,08,19,06,22,17.80
2014,08,19,06,23,17.80
2014,08,19,06,24,17.80
2014,08,19,06,25,17.70
2014,08,19,06,26,17.70
2014,08,19,06,27,17.70
2014,08,19,06,28,17.60
2014,08,19,06,29,17.60
2014,08,19,06,30,17.60
2014,08,19,06,31,17.60
2014,08,19,06,32,17.60
2014,08,19,06,33,17.60
2014,08,19,06,34,17.70
2014,08,19,06,35,17.70
2014,08,19,06,36,17.70
2014,08,19,06,37,17.70
2014,08,19,06,38,17.70
2014,08,19,06,39,17.70
2014,08,19,06,40,17.80
2014,08,19,06,41,17.80
2014,08,19,06,42,17.80
2014,08,19,06,43,17.80
2014,08,19,06,44,17.80
2014,08,19,06,45,17.80
2014,08,19,06,46,17.80
2014,08,19,06,47,17.80
2014,08,19,06,48,17.90
2014,08,19,06,49,17.90
2014,08,19,06,50,17.90
2014,08,19,06,51,17.90
2014,08,19,06,52,17.90
2014,08,19,06,53,18.00
2014,08,19,06,54,18.00
2014,08,19,06,55,18.00
2014,08,19,06,56,18.10
2014,08,19,06,57,18.10
2014,08,19,06,58,18.10
2014,08,19,06,59,18.20
2014,08,19,07,00,18.20
2014,08,19,07,01,18.20
2014,08,19,07,02,18.30
2014,08,19,07,03,18.30
2014,08,19,07,04,18.30
2014,08,19,07,05,18.30
2014,08,19,07,06,18.40
2014,08,19,07,07,18.40
2014,08,19,07,08,18.40
2014,08,19,07,09,18.40
2014,08,19,07,10,18.40
2014,08,19,07,11,18.40
2014,08,19,07,12,18.40
2014,08,19,07,13,18.50
2014,08,19,07,14,18.50
2014,08,19,07,15,18.50
2014,08,19,07,16,18.50
2014,08,19,07,17,18.60
2014,08,19,07,18,18.60
2014,08,19,07,19,18.70
2014,08,19,07,20,18.70
2014,08,19,07,21,18.80
2014,08,19,07,22,18.80
2014,08,19,07,23,18.80
2014,08,19,07,24,18.80
2014,08,19,07,25,18.80
2014,08,19,07,26,18.80
2014,08,19,07,27,18.80
2014,08,19,07,28,18.80
2014,08,19,07,29,18.80
2014,08,19,07,30,18.80
2014,08,19,07,31,18.90
2014,08,19,07,32,18.90
2014,08,19,07,33,19.00
2014,08,19,07,34,19.10
2014,08,19,07,35,19.10
2014,08,19,07,36,19.20
2014,08,19,07,37,19.20
2014,08,19,07,38,19.30
2014,08,19,07,39,19.30
2014,08,19,07,40,19.30
2014,08,19,07,41,19.30
2014,08,19,07,42,19.20
2014,08,19,07,43,19.20
2014,08,19,07,44,19.20
2014,08,19,07,45,19.20
2014,08,19,07,46,19.20
2014,08,19,07,47,19.20
2014,08,19,07,48,19.20
2014,08,19,07,49,19.30
2014,08,19,07,50,19.30
2014,08,19,07,51,19.30
2014,08,19,07,52,19.30
2014,08,19,07,53,19.30
2014,08,19,07,54,19.30
2014,08,19,07,55,19.30
2014,08,19,07,56,19.40
2014,08,19,07,57,19.50
2014,08,19,07,58,19.60
2014,08,19,07,59,19.70
2014,08,19,08,00,19.80
2014,08,19,08,01,19.90
2014,08,19,08,02,20.00
2014,08,19,08,03,20.10
2014,08,19,08,04,20.20
2014,08,19,08,05,20.30
2014,08,19,08,06,20.40
2014,08,19,08,07,20.50
2014,08,19,08,08,20.60
2014,08,19,08,09,20.70
2014,08,19,08,10,20.80
2014,08,19,08,11,20.80
2014,08,19,08,12,20.90
2014,08,19,08,13,21.00
2014,08,19,08,14,21.10
2014,08,19,08,15,21.10
2014,08,19,08,16,21.20
2014,08,19,08,17,21.20
2014,08,19,08,18,21.20
2014,08,19,08,19,21.20
2014,08,19,08,20,21.00
2014,08,19,08,21,20.80
2014,08,19,08,22,20.70
2014,08,19,08,23,20.70
2014,08,19,08,24,20.70
2014,08,19,08,25,20.70
2014,08,19,08,26,20.70
2014,08,19,08,27,20.70
2014,08,19,08,28,20.80
2014,08,19,08,29,20.80
2014,08,19,08,30,20.80
2014,08,19,08,31,20.80
2014,08,19,08,32,20.80
2014,08,19,08,33,20.80
2014,08,19,08,34,20.80
2014,08,19,08,35,20.80
2014,08,19,08,36,20.80
2014,08,19,08,37,20.80
2014,08,19,08,38,20.80
2014,08,19,08,39,20.80
2014,08,19,08,40,20.80
2014,08,19,08,41,20.80
2014,08,19,08,42,20.90
2014,08,19,08,43,20.90
2014,08,19,08,44,20.90
2014,08,19,08,45,21.00
2014,08,19,08,46,21.00
2014,08,19,08,47,21.00
2014,08,19,08,48,21.10
2014,08,19,08,49,21.10
2014,08,19,08,50,21.20
2014,08,19,08,51,21.20
2014,08,19,08,52,21.30
2014,08,19,08,53,21.40
2014,08,19,08,54,21.40
2014,08,19,08,55,21.50
2014,08,19,08,56,21.60
2014,08,19,08,57,21.70
2014,08,19,08,58,21.80
2014,08,19,08,59,21.80
2014,08,19,09,00,21.80
2014,08,19,09,01,21.80
2014,08,19,09,02,21.90
2014,08,19,09,03,21.80
2014,08,19,09,04,21.80
2014,08,19,09,05,21.80
2014,08,19,09,06,21.80
2014,08,19,09,07,21.80
2014,08,19,09,08,21.90
2014,08,19,09,09,21.90
2014,08,19,09,10,21.90
2014,08,19,09,11,21.90
2014,08,19,09,12,22.00
2014,08,19,09,13,22.10
2014,08,19,09,14,22.10
2014,08,19,09,15,22.10
2014,08,19,09,16,22.10
2014,08,19,09,17,22.10
2014,08,19,09,18,22.00
2014,08,19,09,19,22.00
2014,08,19,09,20,21.90
2014,08,19,09,21,21.70
2014,08,19,09,22,21.60
2014,08,19,09,23,21.50
2014,08,19,09,24,21.50
2014,08,19,09,25,21.50
2014,08,19,09,26,21.60
2014,08,19,09,27,21.60
2014,08,19,09,28,21.60
2014,08,19,09,29,21.60
2014,08,19,09,30,21.60
2014,08,19,09,31,21.70
2014,08,19,09,32,21.60
2014,08,19,09,33,21.50
2014,08,19,09,34,21.40
2014,08,19,09,35,21.40
2014,08,19,09,36,21.50
2014,08,19,09,37,21.50
2014,08,19,09,38,21.50
2014,08,19,09,39,21.50
2014,08,19,09,40,21.60
2014,08,19,09,41,21.50
2014,08,19,09,42,21.60
2014,08,19,09,43,21.70
2014,08,19,09,44,21.60
2014,08,19,09,45,21.60
2014,08,19,09,46,21.50
2014,08,19,09,47,21.60
2014,08,19,09,48,21.60
2014,08,19,09,49,21.70
2014,08,19,09,50,21.70
2014,08,19,09,51,21.70
2014,08,19,09,52,21.60
2014,08,19,09,53,21.60
2014,08,19,09,54,21.70
2014,08,19,09,55,21.80
2014,08,19,09,56,21.90
2014,08,19,09,57,22.00
2014,08,19,09,58,22.10
2014,08,19,09,59,22.20
2014,08,19,10,00,22.20
2014,08,19,10,01,22.30
2014,08,19,10,02,22.30
2014,08,19,10,03,22.30
2014,08,19,10,04,22.20
2014,08,19,10,05,22.00
2014,08,19,10,06,21.90
2014,08,19,10,07,21.80
2014,08,19,10,08,21.80
2014,08,19,10,09,21.80
2014,08,19,10,10,21.80
2014,08,19,10,11,21.90
2014,08,19,10,12,21.90
2014,08,19,10,13,21.80
2014,08,19,10,14,21.80
2014,08,19,10,15,21.70
2014,08,19,10,16,21.70
2014,08,19,10,17,21.70
2014,08,19,10,18,21.60
2014,08,19,10,19,21.50
2014,08,19,10,20,21.40
2014,08,19,10,21,21.50
2014,08,19,10,22,21.60
2014,08,19,10,23,21.70
2014,08,19,10,24,21.70
2014,08,19,10,25,21.70
2014,08,19,10,26,21.80
2014,08,19,10,27,21.90
2014,08,19,10,28,22.00
2014,08,19,10,29,22.10
2014,08,19,10,30,22.00
2014,08,19,10,31,22.10
2014,08,19,10,32,22.10
2014,08,19,10,33,22.20
2014,08,19,10,34,22.20
2014,08,19,10,35,22.20
2014,08,19,10,36,22.20
2014,08,19,10,37,22.10
2014,08,19,10,38,21.90
2014,08,19,10,39,21.80
2014,08,19,10,40,21.80
2014,08,19,10,41,21.90
2014,08,19,10,42,21.90
2014,08,19,10,43,21.90
2014,08,19,10,44,21.80
2014,08,19,10,45,21.80
2014,08,19,10,46,21.80
2014,08,19,10,47,22.00
2014,08,19,10,48,22.00
2014,08,19,10,49,22.00
2014,08,19,10,50,21.90
2014,08,19,10,51,21.80
2014,08,19,10,52,21.80
2014,08,19,10,53,21.70
2014,08,19,10,54,21.80
2014,08,19,10,55,21.90
2014,08,19,10,56,21.90
2014,08,19,10,57,21.80
2014,08,19,10,58,21.80
2014,08,19,10,59,21.90
2014,08,19,11,00,22.00
2014,08,19,11,01,22.00
2014,08,19,11,02,21.90
2014,08,19,11,03,21.90
2014,08,19,11,04,21.80
2014,08,19,11,05,21.80
2014,08,19,11,06,21.80
2014,08,19,11,07,21.80
2014,08,19,11,08,21.70
2014,08,19,11,09,21.60
2014,08,19,11,10,21.60
2014,08,19,11,11,21.60
2014,08,19,11,12,21.60
2014,08,19,11,13,21.70
2014,08,19,11,14,21.80
2014,08,19,11,15,21.80
2014,08,19,11,16,21.80
2014,08,19,11,17,21.90
2014,08,19,11,18,22.00
2014,08,19,11,19,22.00
2014,08,19,11,20,22.00
2014,08,19,11,21,21.90
2014,08,19,11,22,22.00
2014,08,19,11,23,22.00
2014,08,19,11,24,22.10
2014,08,19,11,25,22.10
2014,08,19,11,26,22.10
2014,08,19,11,27,22.00
2014,08,19,11,28,21.90
2014,08,19,11,29,22.00
2014,08,19,11,30,22.10
2014,08,19,11,31,22.10
2014,08,19,11,32,22.10
2014,08,19,11,33,22.10
2014,08,19,11,34,22.10
2014,08,19,11,35,22.10
2014,08,19,11,36,22.10
2014,08,19,11,37,22.20
2014,08,19,11,38,22.10
2014,08,19,11,39,22.00
2014,08,19,11,40,21.90
2014,08,19,11,41,21.90
2014,08,19,11,42,21.90
2014,08,19,11,43,21.90
2014,08,19,11,44,21.80
2014,08,19,11,45,21.80
2014,08,19,11,46,21.80
2014,08,19,11,47,21.80
2014,08,19,11,48,21.90
2014,08,19,11,49,21.80
2014,08,19,11,50,21.80
2014,08,19,11,51,21.90
2014,08,19,11,52,21.90
2014,08,19,11,53,21.90
2014,08,19,11,54,21.90
2014,08,19,11,55,21.80
2014,08,19,11,56,21.80
2014,08,19,11,57,21.80
2014,08,19,11,58,21.90
2014,08,19,11,59,21.90
2014,08,19,12,00,21.90
2014,08,19,12,01,21.90
2014,08,19,12,02,22.00
2014,08,19,12,03,22.00
2014,08,19,12,04,22.10
2014,08,19,12,05,22.10
2014,08,19,12,06,22.20
2014,08,19,12,07,22.30
2014,08,19,12,08,22.40
2014,08,19,12,09,22.40
2014,08,19,12,10,22.30
2014,08,19,12,11,22.30
2014,08,19,12,12,22.20
2014,08,19,12,13,22.20
2014,08,19,12,14,22.20
2014,08,19,12,15,22.30
2014,08,19,12,16,22.30
2014,08,19,12,17,22.40
2014,08,19,12,18,22.40
2014,08,19,12,19,22.40
2014,08,19,12,20,22.40
2014,08,19,12,21,22.50
2014,08,19,12,22,22.60
2014,08,19,12,23,22.60
2014,08,19,12,24,22.60
2014,08,19,12,25,22.50
2014,08,19,12,26,22.50
2014,08,19,12,27,22.60
2014,08,19,12,28,22.70
2014,08,19,12,29,22.70
2014,08,19,12,30,22.70
2014,08,19,12,31,22.70
2014,08,19,12,32,22.70
2014,08,19,12,33,22.80
2014,08,19,12,34,22.80
2014,08,19,12,35,22.80
2014,08,19,12,36,22.80
2014,08,19,12,37,22.80
2014,08,19,12,38,22.70
2014,08,19,12,39,22.70
2014,08,19,12,40,22.70
2014,08,19,12,41,22.70
2014,08,19,12,42,22.60
2014,08,19,12,43,22.50
2014,08,19,12,44,22.40
2014,08,19,12,45,22.40
2014,08,19,12,46,22.40
2014,08,19,12,47,22.40
2014,08,19,12,48,22.30
2014,08,19,12,49,22.40
2014,08,19,12,50,22.40
2014,08,19,12,51,22.50
2014,08,19,12,52,22.50
2014,08,19,12,53,22.60
2014,08,19,12,54,22.60
2014,08,19,12,55,22.60
2014,08,19,12,56,22.60
2014,08,19,12,57,22.60
2014,08,19,12,58,22.60
2014,08,19,12,59,22.60
2014,08,19,13,00,22.60
2014,08,19,13,01,22.60
2014,08,19,13,02,22.70
2014,08,19,13,03,22.70
2014,08,19,13,04,22.70
2014,08,19,13,05,22.70
2014,08,19,13,06,22.70
2014,08,19,13,07,22.70
2014,08,19,13,08,22.70
2014,08,19,13,09,22.60
2014,08,19,13,10,22.60
2014,08,19,13,11,22.60
2014,08,19,13,12,22.60
2014,08,19,13,13,22.70
2014,08,19,13,14,22.80
2014,08,19,13,15,22.80
2014,08,19,13,16,22.80
2014,08,19,13,17,22.70
2014,08,19,13,18,22.70
2014,08,19,13,19,22.80
2014,08,19,13,20,22.70
2014,08,19,13,21,22.60
2014,08,19,13,22,22.60
2014,08,19,13,23,22.50
2014,08,19,13,24,22.40
2014,08,19,13,25,22.30
2014,08,19,13,26,22.30
2014,08,19,13,27,22.30
2014,08,19,13,28,22.30
2014,08,19,13,29,22.20
2014,08,19,13,30,22.10
2014,08,19,13,31,22.30
2014,08,19,13,32,22.40
2014,08,19,13,33,22.40
2014,08,19,13,34,22.40
2014,08,19,13,35,22.40
2014,08,19,13,36,22.50
2014,08,19,13,37,22.50
2014,08,19,13,38,22.50
2014,08,19,13,39,22.50
2014,08,19,13,40,22.60
2014,08,19,13,41,22.60
2014,08,19,13,42,22.50
2014,08,19,13,43,22.40
2014,08,19,13,44,22.40
2014,08,19,13,45,22.50
2014,08,19,13,46,22.50
2014,08,19,13,47,22.50
2014,08,19,13,48,22.50
2014,08,19,13,49,22.40
2014,08,19,13,50,22.40
2014,08,19,13,51,22.30
2014,08,19,13,52,22.30
2014,08,19,13,53,22.40
2014,08,19,13,54,22.50
2014,08,19,13,55,22.60
2014,08,19,13,56,22.70
2014,08,19,13,57,22.70
2014,08,19,13,58,22.80
2014,08,19,13,59,22.80
2014,08,19,14,00,22.80
2014,08,19,14,01,22.60
2014,08,19,14,02,22.50
2014,08,19,14,03,22.40
2014,08,19,14,04,22.30
2014,08,19,14,05,22.30
2014,08,19,14,06,22.20
2014,08,19,14,07,22.30
2014,08,19,14,08,22.30
2014,08,19,14,09,22.30
2014,08,19,14,10,22.30
2014,08,19,14,11,22.40
2014,08,19,14,12,22.50
2014,08,19,14,13,22.60
2014,08,19,14,14,22.60
2014,08,19,14,15,22.70
2014,08,19,14,16,22.80
2014,08,19,14,17,22.80
2014,08,19,14,18,22.80
2014,08,19,14,19,22.70
2014,08,19,14,20,22.60
2014,08,19,14,21,22.60
2014,08,19,14,22,22.60
2014,08,19,14,23,22.50
2014,08,19,14,24,22.40
2014,08,19,14,25,22.50
2014,08,19,14,26,22.40
2014,08,19,14,27,22.50
2014,08,19,14,28,22.60
2014,08,19,14,29,22.60
2014,08,19,14,30,22.60
2014,08,19,14,31,22.50
2014,08,19,14,32,22.50
2014,08,19,14,33,22.50
2014,08,19,14,34,22.60
2014,08,19,14,35,22.60
2014,08,19,14,36,22.60
2014,08,19,14,37,22.60
2014,08,19,14,38,22.50
2014,08,19,14,39,22.50
2014,08,19,14,40,22.60
2014,08,19,14,41,22.70
2014,08,19,14,42,22.80
2014,08,19,14,43,22.80
2014,08,19,14,44,22.80
2014,08,19,14,45,22.80
2014,08,19,14,46,22.80
2014,08,19,14,47,22.70
2014,08,19,14,48,22.70
2014,08,19,14,49,22.60
2014,08,19,14,50,22.60
2014,08,19,14,51,22.60
2014,08,19,14,52,22.70
2014,08,19,14,53,22.90
2014,08,19,14,54,23.10
2014,08,19,14,55,23.20
2014,08,19,14,56,23.20
2014,08,19,14,57,23.30
2014,08,19,14,58,23.30
2014,08,19,14,59,23.20
2014,08,19,15,00,23.00
2014,08,19,15,01,22.90
2014,08,19,15,02,22.80
2014,08,19,15,03,22.80
2014,08,19,15,04,22.80
2014,08,19,15,05,22.80
2014,08,19,15,06,22.80
2014,08,19,15,07,22.80
2014,08,19,15,08,22.90
2014,08,19,15,09,22.90
2014,08,19,15,10,22.90
2014,08,19,15,11,23.00
2014,08,19,15,12,23.10
2014,08,19,15,13,23.00
2014,08,19,15,14,23.00
2014,08,19,15,15,22.90
2014,08,19,15,16,22.80
2014,08,19,15,17,22.80
2014,08,19,15,18,22.80
2014,08,19,15,19,22.80
2014,08,19,15,20,22.80
2014,08,19,15,21,22.80
2014,08,19,15,22,22.80
2014,08,19,15,23,22.80
2014,08,19,15,24,22.80
2014,08,19,15,25,23.00
2014,08,19,15,26,23.00
2014,08,19,15,27,23.10
2014,08,19,15,28,23.20
2014,08,19,15,29,23.30
2014,08,19,15,30,23.20
2014,08,19,15,31,23.20
2014,08,19,15,32,23.20
2014,08,19,15,33,23.20
2014,08,19,15,34,23.20
2014,08,19,15,35,23.10
2014,08,19,15,36,23.10
2014,08,19,15,37,23.10
2014,08,19,15,38,23.20
2014,08,19,15,39,23.30
2014,08,19,15,40,23.40
2014,08,19,15,41,23.60
2014,08,19,15,42,23.70
2014,08,19,15,43,23.70
2014,08,19,15,44,23.60
2014,08,19,15,45,23.60
2014,08,19,15,46,23.50
2014,08,19,15,47,23.50
2014,08,19,15,48,23.40
2014,08,19,15,49,23.50
2014,08,19,15,50,23.60
2014,08,19,15,51,23.60
2014,08,19,15,52,23.60
2014,08,19,15,53,23.60
2014,08,19,15,54,23.60
2014,08,19,15,55,23.60
2014,08,19,15,56,23.60
2014,08,19,15,57,23.60
2014,08,19,15,58,23.60
2014,08,19,15,59,23.50
2014,08,19,16,00,23.40
2014,08,19,16,01,23.40
2014,08,19,16,02,23.50
2014,08,19,16,03,23.60
2014,08,19,16,04,23.60
2014,08,19,16,05,23.60
2014,08,19,16,06,23.60
2014,08,19,16,07,23.70
2014,08,19,16,08,23.70
2014,08,19,16,09,23.80
2014,08,19,16,10,23.80
2014,08,19,16,11,23.90
2014,08,19,16,12,24.00
2014,08,19,16,13,24.10
2014,08,19,16,14,24.20
2014,08,19,16,15,24.20
2014,08,19,16,16,24.00
2014,08,19,16,17,23.90
2014,08,19,16,18,23.80
2014,08,19,16,19,23.70
2014,08,19,16,20,23.70
2014,08,19,16,21,23.70
2014,08,19,16,22,23.60
2014,08,19,16,23,23.60
2014,08,19,16,24,23.50
2014,08,19,16,25,23.50
2014,08,19,16,26,23.30
2014,08,19,16,27,23.20
2014,08,19,16,28,23.20
2014,08,19,16,29,23.10
2014,08,19,16,30,23.10
2014,08,19,16,31,23.10
2014,08,19,16,32,23.10
2014,08,19,16,33,23.20
2014,08,19,16,34,23.30
2014,08,19,16,35,23.30
2014,08,19,16,36,23.30
2014,08,19,16,37,23.30
2014,08,19,16,38,23.30
2014,08,19,16,39,23.40
2014,08,19,16,40,23.50
2014,08,19,16,41,23.60
2014,08,19,16,42,23.60
2014,08,19,16,43,23.60
2014,08,19,16,44,23.60
2014,08,19,16,45,23.60
2014,08,19,16,46,23.60
2014,08,19,16,47,23.60
2014,08,19,16,48,23.70
2014,08,19,16,49,23.70
2014,08,19,16,50,23.80
2014,08,19,16,51,23.70
2014,08,19,16,52,23.70
2014,08,19,16,53,23.80
2014,08,19,16,54,23.80
2014,08,19,16,55,23.80
2014,08,19,16,56,23.90
2014,08,19,16,57,24.00
2014,08,19,16,58,24.10
2014,08,19,16,59,24.10
2014,08,19,17,00,24.10
2014,08,19,17,01,24.10
2014,08,19,17,02,24.10
2014,08,19,17,03,24.00
2014,08,19,17,04,23.90
2014,08,19,17,05,23.80
2014,08,19,17,06,23.70
2014,08,19,17,07,23.70
2014,08,19,17,08,23.80
2014,08,19,17,09,23.90
2014,08,19,17,10,23.90
2014,08,19,17,11,24.00
2014,08,19,17,12,24.00
2014,08,19,17,13,24.10
2014,08,19,17,14,24.10
2014,08,19,17,15,24.10
2014,08,19,17,16,24.10
2014,08,19,17,17,24.10
2014,08,19,17,18,24.10
2014,08,19,17,19,24.10